Regional Weather Roundup
Issued by NWS

Home | Current Version | Previous Version | Graphics & Text | Print | Product List | Glossary On
Versions: 1 2 3 4 5 6 7 8 9 10 11 12 13 14 15 16 17 18 19 20 21 22 23 24 25 26 27 28 29 30 31 32 33 34 35 36 37 38 39 40 41 42 43 44 45 46 47 48 49 50
922
ASUS43 KFSD 230602
RWRSD

WEATHER ROUNDUP FOR SOUTH DAKOTA
NATIONAL WEATHER SERVICE SIOUX FALLS SD
1200 AM CST THU FEB 23 2017

NOTE: "FAIR" INDICATES FEW OR NO CLOUDS BELOW 12,000 FEET WITH NO
SIGNIFICANT WEATHER AND/OR OBSTRUCTIONS TO VISIBILITY.


SDZ001>005-009-010-012>017-230700-
NORTHWEST AND NORTH CENTRAL SOUTH DAKOTA

CITY           SKY/WX    TMP DP  RH WIND       PRES   REMARKS
BUFFALO          N/A     29  27  92 E10       29.86S WCI  20
FAITH            N/A     30  30 100 E8        29.94S WCI  22
MOBRIDGE       CLOUDY    33  25  72 NE9       29.95R WCI  25
$$

SDZ012>016-024>037-041>051-057-063-072>074-230700-
SOUTHWEST AND SOUTH CENTRAL SOUTH DAKOTA

CITY           SKY/WX    TMP DP  RH WIND       PRES   REMARKS
RAPID CTY ARPT CLOUDY    31  27  85 NE13      29.89F WCI  21
PIERRE         CLOUDY    32  27  81 N9        29.97R WCI  24
CUSTER         FOG       24  22  91 NE10      29.77F VSB 1/4 WCI  14
ELLSWORTH AFB  CLOUDY    31  28  89 NE9       29.89  WCI  23
PHILIP         CLOUDY    33  31  92 NE14      29.94S WCI  23
PINE RIDGE     CLOUDY    33  29  85 NE13      29.86F WCI  24
SPEARFISH      CLOUDY    28  27  93 E12       29.87F WCI  18
WINNER         CLOUDY    35  31  85 NE15      29.93R WCI  25
$$

SDZ004>011-016>023-039-040-230700-
NORTHEAST SOUTH DAKOTA

CITY           SKY/WX    TMP DP  RH WIND       PRES   REMARKS
ABERDEEN       PTCLDY    29  23  78 N15       29.94F WCI  18
WATERTOWN      CLOUDY    29  24  82 N18       29.90R WCI  16
BROOKINGS      CLOUDY    31  28  89 N13       29.90R WCI  21
SISSETON         N/A     30  27  88 N14       29.92S WCI  19
$$

SDZ017-020-022-023-036>040-048>070-230700-
SOUTHEAST SOUTH DAKOTA

CITY           SKY/WX    TMP DP  RH WIND       PRES   REMARKS
SIOUX FALLS    CLOUDY    35  32  88 N12       29.90R WCI  27
HURON          CLOUDY    32  26  78 N14       29.95R WCI  22
CHAMBERLAIN    CLOUDY    33  30  89 N10G17    29.94S WCI  25
MITCHELL       CLOUDY    33  30  88 N16       29.94S WCI  23
YANKTON        CLOUDY    37  32  81 N15G28    29.86F
$$

ABBREVIATIONS USED IN REMARKS
   TC - TEMPERATURE IN CELSIUS
  WCI - WIND CHILL INDEX
   HX - HEAT INDEX
  VSB - VISIBILITY





USA.gov is the U.S. government's official web portal to all federal, state and local government web resources and services.